Simultaneous Nadir Overpasses (SNOs) Predictions

Prediction of SNOs between METOP-B and TERRA Satellite Orbit:

Table of predicted SNOs for the next 14.0 days since TLE Epoch: 5/11/2019
Index Date (METOP-B) Time (METOP-B) Lat,Lon (METOP-B) SZA (METOP-B ) Date (TERRA) Time (TERRA) Lat,Lon (TERRA) SZA (TERRA ) Distance(km) Time Diff (sec)
1 05/13/2019 21:55:31 81.30,-101.75 65.81 05/13/2019 21:55:45 81.30,-101.70 65.82 0.76 14
2 05/13/2019 22:46:10 -81.31, 66.38 114.10 05/13/2019 22:45:11 -81.32, 66.20 114.15 3.05 59
3 05/16/2019 17:29:54 81.30, -35.36 65.15 05/16/2019 17:30:00 81.30, -35.27 65.16 1.52 6
4 05/16/2019 18:20:33 -81.31, 132.81 114.76 05/16/2019 18:19:26 -81.32, 132.66 114.81 2.62 67
5 05/19/2019 12:13:37 -81.30,-136.48 115.50 05/19/2019 12:14:49 -81.29,-136.61 115.48 2.18 72
6 05/19/2019 13:04:17 81.30, 30.98 64.51 05/19/2019 13:04:15 81.30, 31.12 64.53 2.42 2
7 05/19/2019 13:54:26 -81.27,-149.03 113.91 05/19/2019 13:53:19 -81.67,-152.20 114.18 68.87 67
8 05/22/2019 07:47:59 -81.30, -70.14 116.09 05/22/2019 07:49:03 -81.29, -70.22 116.07 1.54 64
9 05/22/2019 08:38:38 81.31, 97.67 63.97 05/22/2019 08:38:29 81.30, 97.49 63.94 3.38 9




NCC Satellite Simultaneous Nadir Overpasses (SNOs) Prediction Service
